Regional Weather Roundup
Issued by NWS Newport/Morehead, NC

Current Version | Previous Version | Graphics & Text | Print | Product List | Glossary Off
Versions: 1 2 3 4 5 6 7 8 9 10 11 12 13 14 15 16 17 18 19 20 21 22 23 24 25 26 27 28 29 30 31 32 33 34 35 36 37 38 39 40 41 42 43 44 45 46 47 48 49 50

000
ASUS42 KMHX 032313
RWRMHX
WEATHER ROUNDUP FOR EASTERN NORTH CAROLINA
NATIONAL WEATHER SERVICE NEWPORT/MOREHEAD CITY NC
700 PM EDT FRI JUL 03 2015

NOTE: "FAIR" INDICATES FEW OR NO CLOUDS BELOW 12,000 FEET
WITH NO SIGNIFICANT WEATHER AND/OR OBSTRUCTIONS TO VISIBILITY

NCZ015>017-031-032-045>047-102-103-040000-
NORTH COAST

CITY           SKY/WX    TMP DP  RH WIND       PRES   REMARKS
EDENTON        HVY RAIN  75  72  90 SE5       29.92R
ELIZABETH CITY HVY RAIN  75  72  90 E14       29.91F VSB 1
KITTY HAWK     DRIZZLE   76  73  89 E5        29.91F
MANTEO         CLOUDY    76  73  92 E7        29.92F

$$

NCZ045>047-081-094-103-104-040000-
CENTRAL COAST

CITY           SKY/WX    TMP DP  RH WIND       PRES   REMARKS
FRISCO         PTSUNNY   79  73  82 SW10G21   29.93F
SWANQUARTER      N/A     75 N/A N/A SW17      29.88S

$$

NCZ095-097-098-100-101-040000-
SOUTHERN COAST

CITY           SKY/WX    TMP DP  RH WIND       PRES   REMARKS
BEAUFORT       LGT RAIN  79  75  87 SW17G26   29.95S
CEDAR ISLAND     N/A     81 N/A N/A S16       29.97S
JACKSONVILLE   NOT AVBL
PINEY ISLAND   CLOUDY   N/A N/A N/A S17       29.93S
WILMINGTON     LGT RAIN  78  74  87 SW10      29.93F


$$

NCZ011>013-027>030-043-044-078>080-089-090>093-098-040000-
COASTAL PLAIN

CITY           SKY/WX    TMP DP  RH WIND       PRES   REMARKS
AHOSKIE        PTSUNNY  N/A N/A N/A CALM      29.89F
CLINTON        PTSUNNY   82  75  81 CALM      29.90F
ELIZABETHTOWN  PTSUNNY   84  72  67 S3        29.90F
GOLDSBORO      CLOUDY    75  74  96 SE1       29.89S
GREENVILLE     RAIN      81  73  78 SW9       29.92R
HAVELOCK       CLOUDY    79  72  79 SW12      29.95R
KENANSVILLE    PTSUNNY   80  71  75 CALM      29.92S
KINSTON        PTSUNNY   79  73  83 NW8       29.92R
NEW BERN       LGT RAIN  77  74  90 S8        29.94R
RICHLANDS      PTSUNNY   81  70  69 S13       29.92F
ROCKY MOUNT    LGT RAIN  78  73  84 S8        29.88F
WASHINGTON     PTSUNNY   75  74  95 E6        29.90S
WHITEVILLE     CLOUDY    78  73  85 S8        29.92F

$$

AMZ130-135-150-152-154-156-158-170-250-252-270-ANZ085-086-088-633-658-670-040000-
MARINE OBSERVATIONS

STATION/POSITION TIME  TEMP    WIND        PRES    WAVE   SWELL
                       AIR SEA DIR/SP/G            HT/PER HT/PER
                 (UTC) (F)     (DEG/KT/KT) (MB)    (FT/S) (FT/S)
CHESAPEAKE LIGHT 2300   75     110/ 16/ 18 1013.9
64 E VA BEACH    2250   76 78  110/  8/ 10 1013.9    3/ 8   3/ 8
DUCK             2200   76 77  100/ 13/ 14 1012.8
2 E DUCK         2211      77                N/A     2/ 8
OREGON INLET     2200   77 78  110/  7/ 10 1013.7
13E OREGON INLT  2300      73                N/A     4/ 7   2/15
HATTERAS CG      2200   79 79  200/ 11/ 16 1013.5
DIAMOND BUOY     2250   81 81  230/ 21/ 27 1013.3    5/ 7   2/15
CAPE LOOKOUT     2300   80     220/ 15/ 21 1014.0
BEAUFORT LAB     2200   80 81  210/ 14/ 19 1013.1
30 SE NEW RVR IN 2208   80 80  230/ 17/ 25 1014.5
27 SE WRIGHTSVLE 2200      80  230/ 17/ 21   N/A
5 SE WRIGHTSVLE  2208   80 79  230/ 21/ 29 1013.7
225 S CAPE HAT   2250   81 80  230/ 12/ 14 1018.8    6/ 7   5/ 7
41 SE CHARLESTON 2250   81 82  220/ 16/ 19 1015.3    5/ 5   2/ 9

$$


USA.gov is the U.S. government's official web portal to all federal, state and local government web resources and services.